Location: Arpaise
(41.0333°N, 14.7333°E)
Time: 17:04:09
(UTC+00:00)

In-Cosmos 22 Rocket - Pass Details

Date: 05 July 2020
Orbit: 791 x 887 km, 81.2° (Epoch: 11 August)

Event Time Altitude Azimuth Distance (km) Brightness Sun altitude
Exits shadow 21:29:55 48° 191° (S) 1,027 4.3 -22.5°
Maximum altitude 21:31:28 88° 276° (W) 798 4.0 -22.6°
Drops below altitude 10° 21:36:48 10° 9° (N) 2,367 7.3 -23.0°
Sets 21:39:12 0° 10° (N) 3,306 8.2 -23.2°
